Vertical_Velocity
1 0 -0 -1 -2 -2 -1 -1 -2 -1 -1 -0 0 0 0 1 0 1 1 1 1 1 1 2 2 2 2 1 2 2 2 3 3 3 3 3 3 3 2 2 2 2 3 3 3 4 4 4 4 3 2 1 2 3 5 5 4 2 1 1 1 0 0 0 0 0 1 1 3
0 0 -0 -1 -2 -1 -1 -1 -2 -1 -0 0 1 1 1 1 1 1 1 1 1 2 2 2 2 2 1 1 1 2 2 2 2 2 2 2 2 1 1 1 1 1 1 1 1 1 1 2 3 3 3 2 4 5 5 5 3 1 1 2 2 3 3 2 2 2 2 3 4
1 1 0 -2 -2 -2 -2 -3 -2 -1 0 1 1 1 1 1 1 1 1 2 2 2 2 1 2 2 2 2 1 1 1 2 2 2 1 1 1 1 0 0 0 -0 -1 -1 -1 -2 -1 0 2 3 4 6 8 8 6 3 2 1 1 1 1 1 1 1 3 4 5 4 4
1 1 -1 -3 -4 -4 -4 -3 -1 0 1 1 1 1 1 1 1 1 1 2 1 1 1 2 2 3 3 3 1 1 1 1 1 1 1 1 1 0 0 0 -1 -1 -1 -1 -1 -1 -0 -0 -0 0 1 4 5 3 1 -0 -0 0 0 1 2 2 3 4 6 7 6 5 4
1 -0 -2 -4 -3 -2 -1 0 1 1 1 1 0 0 0 0 0 1 1 1 0 1 1 2 3 3 3 3 1 1 0 0 1 1 1 1 1 0 0 -0 -1 -1 -1 -0 0 1 1 -0 -1 -2 -1 0 -0 -1 -2 -3 -3 -2 -1 1 3 4 4 4 5 6 6 4 2
0 -1 -2 -2 -1 -0 1 1 1 1 1 0 -0 -0 -0 -0 -0 0 0 1 1 2 2 3 2 2 2 2 2 1 0 -0 -0 0 1 1 0 0 -0 -0 -0 -0 -0 -0 1 1 1 -1 -2 -2 -2 -2 -2 -1 -0 0 1 2 2 2 4 5 5 4 5 5 4 1 0
-0 -1 -2 -1 -0 0 1 1 1 1 0 -1 -1 -1 -1 -0 0 1 1 2 2 2 2 2 2 2 2 2 1 0 -1 -1 -1 -0 0 1 1 1 1 0 0 0 0 0 1 1 1 2 0 -1 -1 -1 -0 1 2 3 4 5 5 4 4 4 4 3 2 2 0 -1 -2
1 0 -0 -0 0 0 0 0 0 -1 -1 -2 -1 -1 0 1 1 2 2 2 1 2 2 2 2 2 2 2 1 -0 -0 -0 -1 -1 0 1 2 2 1 0 -0 0 1 1 1 1 2 3 1 -0 -0 -0 0 1 1 2 2 2 2 2 1 1 1 1 0 -1 -2 -2 -3
1 1 0 1 1 0 0 -0 -1 -1 -2 -2 -1 0 1 2 2 2 2 2 2 2 3 2 2 2 2 2 0 -0 -0 0 -0 0 0 1 0 -1 -2 -2 -2 -2 -1 -0 0 1 1 1 0 0 -0 -1 -1 -0 0 0 -1 -2 -2 -1 -1 -2 -2 -2 -2 -3 -4 -4 -4
0 -0 -0 0 0 0 0 -0 -0 -1 -1 -0 1 2 2 2 2 2 2 2 2 2 2 2 2 2 2 1 -0 -1 -1 1 4 4 2 -1 -3 -3 -3 -3 -3 -3 -2 -2 -0 1 1 2 1 1 1 1 0 0 -0 -1 -2 -3 -3 -2 -2 -3 -3 -3 -3 -3 -3 -3 -3
-1 -1 -1 -1 -1 -0 0 0 0 1 1 0 1 2 1 1 1 1 1 1 1 1 1 1 2 2 1 0 -0 -1 1 5 6 5 2 -1 -2 -3 -2 -2 -1 -1 -1 -1 0 1 2 2 1 1 0 0 -0 -1 -2 -2 -2 -3 -2 -2 -2 -2 -1 -1 -1 -1 -1 -1 -1
-0 -0 -1 -1 -1 0 1 1 1 0 -0 -0 1 1 1 1 1 1 1 1 2 2 2 1 1 1 0 -0 1 3 3 2 1 1 0 -1 -0 -0 -0 0 0 0 -0 -0 0 0 0 -0 -1 -1 -1 -1 -1 -2 -2 -2 -1 -1 -1 -1 -1 -1 -1 -1 -0 0 0 0 0
-0 -0 -0 -0 0 1 2 2 1 -0 -0 -0 1 1 1 1 1 1 1 2 3 2 2 1 0 1 1 3 4 3 1 -2 -2 -1 -0 1 1 1 1 1 1 1 -0 -1 -2 -2 -2 -3 -2 -2 -2 -2 -2 -1 -1 -1 -1 -0 -0 -0 -0 -0 -0 -0 0 0 0 0 0
0 0 0 -0 1 1 2 1 0 0 1 1 1 1 1 1 1 2 2 2 3 2 1 0 1 2 4 3 1 -0 -2 -2 -1 -1 0 1 1 1 1 2 1 0 -1 -2 -3 -3 -3 -2 -2 -1 -1 -1 -1 -2 -1 -1 -1 -1 -0 -0 -0 -0 -0 -0 -0 -0 -0 -1 -1
0 0 0 1 1 2 2 1 1 1 1 1 2 1 1 1 2 2 2 2 2 1 0 1 2 3 2 -0 -2 -2 -1 1 1 1 1 2 2 2 2 0 -1 -2 -2 -2 -1 -1 -2 -1 -1 -1 -1 -1 -1 -1 -1 -1 -1 -1 -1 -1 -0 -0 -0 -0 -0 -0 -1 -0 -0
0 0 1 1 2 2 1 1 2 2 2 2 2 2 1 0 1 2 2 2 0 0 1 2 1 0 -1 -2 -1 1 2 3 2 2 2 2 3 3 2 -0 -2 -2 -2 -1 -0 -0 -1 -1 -1 -2 -2 -2 -2 -2 -2 -1 -1 -1 -1 -1 -0 -0 -0 -0 -0 -0 -0 0 0
1 1 1 1 1 1 1 2 1 1 1 2 2 1 -1 -2 -0 1 1 0 0 1 1 0 -2 -2 -2 0 2 3 3 3 2 1 1 2 2 2 1 0 -0 -1 -2 -2 -1 -1 -1 -1 -2 -2 -2 -2 -2 -1 -1 -0 0 0 0 0 0 0 0 0 0 0 0 -0 -0
1 1 1 1 1 1 1 1 0 0 0 1 1 0 -1 -2 -1 -0 0 0 2 2 1 -1 -2 -1 0 2 3 2 2 1 1 1 1 1 1 1 1 1 0 -1 -2 -3 -2 -2 -2 -2 -2 -2 -1 -1 -0 0 1 1 1 1 0 1 0 0 0 -0 -1 -1 -1 -1 -1
1 2 2 2 1 1 1 0 -0 -0 -0 0 0 0 0 -0 -0 0 1 3 4 3 0 -1 -1 0 1 1 1 0 -0 -1 -0 0 1 1 1 -0 -1 -2 -2 -2 -3 -2 -2 -2 -2 -1 -1 -1 -0 -0 0 0 0 0 0 0 0 0 0 -0 -0 -1 -1 -2 -2 -1 -1
1 1 1 1 0 -0 -0 -0 -0 0 0 0 1 1 1 1 1 1 2 4 4 2 -1 -1 0 1 1 0 -0 -1 -1 -0 1 1 1 0 -1 -2 -3 -4 -3 -2 -2 -1 -1 -1 -1 -1 -1 -0 -0 -0 -0 -0 0 1 1 1 1 0 0 -0 -1 -1 -1 -1 -1 -1 -1
-1 -1 -1 -1 -1 -1 -0 0 1 1 1 1 1 1 1 2 1 1 2 3 1 -0 -2 -2 -1 -0 -0 -1 -1 -0 0 1 0 0 -0 -1 -2 -2 -2 -2 -1 -1 -1 -2 -2 -1 -0 1 1 0 0 -0 -0 0 0 1 0 0 0 -0 -1 -1 -1 -1 -1 -1 -1 -0 -0
-2 -2 -1 -1 -0 0 1 1 1 1 1 1 1 1 1 2 1 1 0 0 -1 -2 -3 -3 -1 -1 -1 -1 -0 0 1 0 -1 -1 -1 -1 -1 -1 -0 0 0 0 0 1 1 1 1 1 0 0 -0 0 0 0 1 0 -0 -1 -1 -1 -1 -1 -1 -1 -1 -0 -0 0 0
-1 -1 -0 0 1 1 1 1 1 1 0 0 -0 -0 1 2 1 -0 -1 -2 -2 -3 -3 -3 -2 -2 -1 -1 0 0 -0 -1 -1 -1 -1 -0 -0 0 0 1 1 2 2 2 2 1 0 -0 -0 -0 -0 0 0 0 0 -0 -1 -1 -1 -1 -1 -1 -1 -0 -0 0 0 0 1
0 0 0 0 1 1 1 1 0 -0 -0 -0 -0 -0 0 1 -0 -1 -2 -3 -2 -1 -1 -1 -1 -1 -1 -0 -1 -1 -1 -1 -0 0 1 1 1 1 2 2 2 1 1 0 0 -0 -0 -0 -0 -0 -0 0 -0 -0 -1 -1 -1 -1 -1 -0 -0 -0 -0 -0 -0 -0 -0 0 0
0 0 0 0 0 0 0 -0 -0 -1 -1 -1 -2 -1 -0 0 -1 -2 -4 -3 -1 -0 1 1 1 0 -0 -1 -1 -0 0 1 1 1 1 1 2 2 1 1 0 -0 -0 -1 -1 -1 -1 -1 -0 -0 -0 -0 -0 -1 -1 -1 -1 -1 -1 -0 -0 -0 -1 -1 -1 -0 -0 -0 0
-0 -0 -0 -0 -1 -1 -1 -1 -1 -1 -2 -2 -2 -2 -1 -0 -1 -2 -3 -2 -1 -1 0 1 1 0 0 0 0 1 1 1 1 1 1 1 1 1 0 -0 -1 -1 -1 -1 -1 -1 -1 -1 -0 -0 -0 -0 -1 -1 -1 -1 -1 -1 -1 -1 -0 -0 -1 -1 -1 -0 -0 -0 0
-1 -1 -1 -1 -1 -1 -1 -1 -2 -2 -2 -2 -2 -2 -1 -1 -1 -1 -1 -1 -1 -0 0 0 0 1 1 1 1 1 1 1 1 1 1 0 0 0 -0 -0 -1 -1 -1 -1 -1 -1 -1 -1 -0 -0 -0 -1 -1 -1 -1 -1 -1 -1 -1 -0 -0 -0 -0 -0 -0 -0 -0 0 0
-1 -1 -1 -1 -1 -1 -1 -1 -1 -1 -1 -1 -1 -1 -0 0 0 1 1 1 1 1 1 1 1 1 1 1 1 1 0 0 0 -0 -0 -0 0 0 -0 -0 -0 -0 -1 -2 -2 -2 -1 -0 -0 -0 -1 -1 -1 -1 -1 -1 -1 -1 -1 -0 -0 -0 -0 -0 0 0 0 0 0
-1 -1 -1 -1 -1 -1 -1 -0 -1 -1 -0 0 1 1 1 1 1 1 1 1 1 1 1 1 1 1 0 0 0 0 0 -0 -0 -0 -0 0 0 0 0 -0 -0 -0 -1 -1 -2 -1 -1 -0 -0 -1 -1 -2 -1 -1 -1 -1 -1 -0 -0 -0 -0 -0 -0 -0 -0 0 0 1 1
-0 -0 -1 -1 -1 -0 0 0 0 1 1 1 1 2 1 1 1 1 1 1 1 1 1 1 0 0 0 -0 -0 -0 -0 -0 -0 0 0 0 -0 -0 -0 -0 -0 -0 -1 -1 -1 -0 -0 -0 -1 -1 -2 -2 -1 -1 -1 -1 -1 -0 -0 -0 -0 -0 -0 -0 -0 0 0 0 0
0 0 -0 -0 0 0 0 1 1 1 1 1 1 1 1 1 1 0 0 0 0 0 0 0 0 0 -0 -0 -0 0 0 0 0 0 0 0 -0 -0 -0 -0 -0 -0 -0 -0 -0 -0 -1 -1 -1 -1 -1 -1 -1 -1 -1 -1 -1 -0 -0 -0 -0 -0 -0 -0 0 0 0 0 0
1 1 1 0 0 0 0 1 1 1 1 1 1 0 0 0 0 0 0 0 0 0 0 0 -0 -0 0 0 0 0 0 0 0 0 0 0 -0 -0 -0 -0 -0 -0 -0 -0 -0 -0 -1 -1 -1 -1 -1 -1 -1 -1 -1 -1 -0 -0 -0 -0 -0 -0 -0 -0 -0 -0 -0 -0 -0
1 1 1 1 0 0 0 0 0 0 0 0 0 0 0 -0 -0 -0 -0 0 0 0 0 0 0 0 0 0 0 0 0 0 -0 -0 -0 -0 -0 -0 -1 -1 -1 -1 -0 -0 -0 -1 -1 -1 -1 -1 -1 -1 -1 -1 -1 -0 -1 -0 -0 -0 -1 -1 -1 -0 -0 -0 -0 -0 -0
1 1 1 1 0 -0 -0 -0 -0 -0 -0 -0 -0 0 0 0 0 0 -0 -0 -0 -0 -0 -0 -0 -0 0 0 0 -0 -0 -0 -0 -0 -0 -0 -0 -0 -0 -1 -1 -1 -1 -1 -1 -1 -1 -1 -1 -1 -1 -1 -1 -1 -1 -1 -1 -1 -1 -1 -1 -1 -1 -1 -1 -0 -0 -0 -0
1 0 0 0 -0 -0 -0 -0 -0 -0 -0 -0 -0 0 0 1 0 0 0 -0 -0 -0 -0 -0 -0 -0 -0 -0 -0 -0 -0 -0 -0 -0 -0 -0 -0 -0 -0 -1 -1 -1 -1 -1 -1 -1 -1 -1 -1 -1 -1 -1 -1 -1 -1 -1 -1 -1 -1 -2 -2 -1 -1 -1 -1 -1 -0 -0 -0
1 0 -0 -0 -0 -0 -0 -0 -0 0 0 0 -0 -0 -0 -0 -0 -0 -0 -0 -0 -0 -1 -0 -0 -0 -0 -1 -0 -0 -0 -0 -0 -0 -0 -0 -0 -0 -1 -1 -1 -1 -1 -1 -1 -1 -1 -1 -1 -1 -1 -1 -1 -1 -1 -1 -1 -1 -2 -1 -1 -1 -1 -1 -1 -1 -0 -0 -0
1 1 0 -0 -0 -0 0 0 0 -0 0 0 0 -0 -0 -1 -1 -0 -0 0 -0 -0 -1 -1 -0 -0 -0 -0 -1 -0 -0 -0 -0 -0 -1 -0 -0 -0 -1 -1 -1 -1 -1 -1 -1 -1 -1 -1 -1 -1 -1 -1 -1 -1 -1 -1 -1 -1 -1 -1 -1 -1 -1 -1 -1 -0 -0 -0 -0
1 1 1 0 -0 -0 0 0 0 -0 -0 -0 -0 -0 -0 -1 -1 -1 -1 0 0 -0 -1 -1 -1 -0 -0 -0 -1 -1 -1 -0 -0 -0 -1 -1 -0 -0 -1 -1 -1 -1 -1 -1 -1 -1 -1 -1 -1 -1 -1 -1 -1 -1 -1 -1 -1 -1 -1 -1 -1 -1 -0 -0 -0 -0 -0 -0 0
1 1 2 1 0 -0 -0 -0 -0 -0 -0 -1 -1 -0 -0 -1 -2 -2 -1 -0 0 0 -0 -1 -1 -0 -0 -0 -1 -1 -1 -1 -0 -0 -0 -1 -0 -0 -0 -1 -1 -1 -1 -1 -1 -1 -1 -1 -1 -1 -0 -0 -1 -1 -1 -1 -1 -1 -1 -1 -1 -1 -0 -0 -0 -0 -0 -0 0
1 1 2 1 1 -0 -1 -1 -0 -0 -0 -1 -1 -1 -1 -1 -2 -2 -1 -1 0 0 -0 -1 -1 -1 -1 -0 -1 -1 -1 -1 -0 -0 -0 -0 -1 -1 -1 -1 -1 -1 -1 -1 -1 -1 -1 -0 -0 -0 -0 -0 -0 -1 -1 -1 -1 -1 -0 -0 -0 -0 -0 -0 -0 -0 0 0 0
1 1 1 1 1 -0 -1 -1 -1 -1 -0 -0 -0 -1 -1 -1 -1 -1 -1 -1 -0 -0 -0 -1 -1 -1 -1 -1 -0 -0 -0 -0 -0 0 0 -0 -0 -1 -2 -2 -3 -3 -3 -3 -2 -2 -1 -1 -0 0 0 -0 -0 -1 -1 -1 -1 -1 -0 -0 -0 -0 -0 -0 -0 -0 0 0 0
Height
1468 1470 1471 1472 1473 1474 1476 1477 1479 1481 1482 1484 1485 1487 1488 1489 1490 1492 1492 1494 1495 1496 1497 1497 1498 1499 1499 1500 1500 1501 1502 1502 1503 1504 1504 1505 1506 1507 1507 1507 1508 1509 1509 1510 1510 1511 1511 1512 1512 1512 1512 1513 1513 1513 1513 1514 1514 1514 1515 1515 1515 1515 1515 1515 1515 1515 1514 1514 1513
1467 1468 1470 1471 1472 1473 1475 1477 1478 1480 1481 1483 1484 1486 1487 1488 1490 1491 1492 1493 1494 1495 1496 1496 1497 1498 1498 1499 1499 1500 1501 1501 1502 1502 1503 1504 1504 1505 1506 1506 1507 1507 1508 1508 1508 1509 1509 1510 1510 1511 1511 1511 1512 1512 1512 1512 1513 1513 1513 1513 1513 1513 1513 1513 1513 1513 1512 1512 1511
1466 1467 1469 1470 1471 1472 1474 1476 1477 1479 1480 1482 1483 1485 1486 1487 1489 1490 1491 1492 1493 1494 1495 1496 1496 1497 1497 1498 1499 1499 1500 1500 1501 1501 1502 1503 1503 1504 1505 1505 1506 1507 1507 1507 1508 1508 1508 1508 1509 1509 1509 1510 1510 1510 1511 1511 1512 1512 1512 1512 1512 1511 1511 1511 1511 1511 1511 1510 1509
1465 1466 1467 1468 1470 1472 1473 1475 1477 1478 1480 1481 1483 1484 1486 1487 1488 1489 1490 1491 1492 1493 1494 1495 1495 1496 1497 1497 1498 1498 1499 1499 1500 1501 1501 1502 1502 1503 1504 1504 1505 1506 1506 1507 1507 1507 1507 1507 1507 1508 1508 1508 1508 1508 1509 1510 1510 1510 1510 1510 1510 1509 1509 1509 1509 1508 1508 1507 1506
1464 1465 1466 1467 1469 1471 1473 1474 1476 1477 1479 1480 1482 1483 1485 1486 1487 1488 1489 1490 1491 1492 1493 1494 1494 1495 1496 1496 1497 1497 1498 1498 1499 1500 1500 1501 1502 1502 1503 1503 1504 1505 1505 1506 1506 1507 1507 1507 1507 1507 1507 1507 1507 1508 1508 1508 1508 1508 1508 1508 1507 1507 1507 1506 1506 1505 1505 1504 1504
1463 1464 1466 1467 1469 1471 1472 1474 1475 1477 1478 1480 1481 1482 1484 1485 1487 1487 1488 1489 1490 1491 1492 1493 1493 1494 1495 1495 1496 1497 1497 1498 1498 1499 1499 1500 1501 1501 1502 1502 1503 1504 1504 1505 1505 1505 1506 1506 1506 1506 1507 1507 1507 1507 1507 1507 1507 1507 1506 1506 1505 1505 1504 1504 1503 1502 1502 1502 1502
1462 1463 1465 1467 1468 1470 1472 1473 1474 1476 1477 1479 1480 1482 1483 1485 1486 1487 1488 1489 1489 1490 1491 1492 1493 1493 1494 1494 1495 1496 1497 1497 1498 1498 1499 1499 1500 1500 1501 1502 1502 1502 1503 1504 1504 1504 1505 1505 1505 1505 1505 1506 1506 1506 1506 1505 1505 1505 1504 1503 1503 1502 1502 1502 1501 1500 1500 1500 1500
1462 1463 1465 1466 1468 1469 1471 1472 1474 1475 1477 1478 1480 1481 1483 1484 1485 1486 1487 1488 1488 1489 1490 1491 1492 1492 1493 1494 1494 1495 1496 1496 1497 1497 1498 1498 1499 1499 1500 1501 1501 1502 1502 1502 1503 1503 1503 1503 1504 1504 1504 1504 1504 1504 1504 1503 1503 1502 1502 1501 1501 1500 1500 1499 1499 1499 1498 1498 1498
1461 1462 1464 1466 1467 1469 1470 1472 1473 1475 1476 1478 1479 1481 1482 1483 1484 1485 1486 1487 1488 1489 1489 1490 1491 1492 1492 1493 1494 1494 1495 1495 1496 1497 1497 1497 1498 1498 1499 1500 1500 1500 1501 1501 1502 1502 1502 1502 1502 1502 1502 1502 1502 1502 1502 1501 1501 1500 1500 1499 1499 1498 1498 1498 1498 1498 1497 1497 1497
1460 1462 1463 1465 1466 1468 1469 1471 1472 1474 1476 1477 1479 1480 1481 1482 1483 1484 1485 1486 1487 1488 1488 1489 1490 1491 1492 1492 1493 1494 1494 1495 1495 1496 1496 1497 1497 1498 1498 1499 1499 1499 1500 1500 1500 1501 1501 1501 1501 1501 1501 1500 1500 1500 1499 1499 1499 1498 1498 1498 1498 1498 1498 1498 1498 1498 1497 1497 1497
1459 1461 1462 1464 1466 1467 1469 1470 1472 1474 1475 1477 1478 1479 1480 1481 1482 1483 1484 1485 1486 1487 1487 1488 1489 1490 1491 1492 1492 1493 1493 1494 1494 1495 1495 1496 1497 1497 1498 1498 1498 1498 1499 1499 1499 1499 1499 1499 1499 1499 1498 1498 1498 1498 1497 1497 1497 1497 1497 1497 1497 1498 1498 1497 1497 1497 1497 1496 1496
1459 1460 1462 1463 1465 1467 1468 1470 1472 1473 1475 1476 1477 1478 1479 1481 1482 1482 1483 1484 1485 1486 1487 1487 1488 1489 1490 1491 1491 1492 1492 1493 1493 1494 1494 1495 1496 1496 1496 1497 1497 1497 1497 1497 1497 1497 1497 1497 1497 1497 1497 1497 1497 1497 1497 1497 1497 1497 1497 1497 1497 1497 1497 1497 1496 1496 1495 1495 1495
1458 1460 1462 1463 1464 1466 1468 1469 1471 1472 1474 1475 1477 1478 1479 1480 1481 1482 1482 1483 1484 1485 1486 1487 1488 1489 1489 1490 1490 1491 1491 1492 1492 1493 1494 1494 1495 1495 1495 1495 1496 1496 1496 1496 1496 1496 1496 1496 1496 1496 1496 1497 1497 1497 1497 1497 1497 1497 1497 1497 1497 1496 1496 1495 1495 1494 1494 1494 1493
1458 1459 1461 1462 1464 1466 1467 1469 1470 1472 1473 1475 1476 1477 1478 1479 1480 1481 1482 1482 1483 1484 1485 1486 1487 1488 1488 1489 1489 1490 1490 1491 1492 1492 1493 1493 1494 1494 1494 1494 1494 1494 1495 1495 1495 1495 1496 1496 1496 1497 1497 1497 1497 1497 1497 1497 1497 1497 1497 1496 1496 1495 1495 1494 1494 1493 1493 1493 1492
1457 1459 1461 1462 1464 1465 1467 1468 1470 1472 1473 1474 1475 1476 1477 1478 1479 1480 1481 1482 1482 1483 1484 1485 1486 1487 1487 1488 1488 1489 1490 1490 1491 1492 1492 1492 1493 1493 1493 1493 1493 1493 1493 1494 1495 1495 1496 1496 1496 1497 1497 1497 1496 1496 1496 1496 1496 1496 1496 1495 1495 1494 1494 1493 1493 1492 1492 1492 1491
1457 1458 1460 1462 1463 1465 1467 1468 1469 1471 1472 1473 1474 1475 1476 1477 1478 1479 1480 1481 1482 1483 1484 1485 1485 1486 1486 1487 1488 1488 1489 1490 1490 1491 1491 1492 1492 1492 1492 1492 1492 1492 1493 1494 1494 1495 1495 1495 1496 1496 1496 1496 1496 1496 1495 1495 1495 1495 1495 1494 1494 1493 1493 1492 1492 1492 1491 1491 1490
1457 1458 1460 1461 1463 1464 1466 1467 1469 1470 1471 1472 1473 1474 1476 1477 1477 1478 1479 1481 1482 1482 1483 1483 1484 1485 1486 1487 1487 1488 1488 1489 1489 1490 1490 1490 1491 1491 1491 1491 1492 1492 1493 1494 1494 1494 1494 1495 1495 1495 1495 1495 1495 1495 1495 1495 1494 1494 1494 1493 1493 1492 1492 1491 1491 1490 1490 1489 1489
1456 1457 1459 1461 1462 1464 1465 1467 1468 1469 1470 1472 1473 1474 1475 1476 1477 1478 1479 1480 1481 1482 1482 1483 1484 1485 1486 1486 1487 1487 1487 1488 1488 1489 1489 1489 1490 1490 1490 1491 1492 1492 1493 1493 1494 1494 1494 1494 1495 1495 1495 1495 1495 1495 1494 1494 1494 1493 1493 1492 1492 1491 1490 1490 1489 1489 1488 1488 1488
1456 1457 1459 1460 1462 1463 1465 1466 1467 1469 1470 1471 1472 1473 1475 1476 1477 1478 1479 1479 1480 1481 1481 1482 1483 1484 1485 1485 1486 1486 1487 1487 1488 1488 1489 1489 1490 1490 1491 1491 1492 1492 1493 1493 1493 1494 1494 1494 1494 1494 1494 1494 1494 1494 1493 1493 1492 1492 1492 1491 1490 1490 1489 1488 1488 1487 1487 1487 1487
1455 1457 1458 1460 1461 1462 1464 1465 1467 1468 1469 1471 1472 1473 1474 1475 1476 1477 1478 1479 1479 1480 1481 1482 1482 1483 1484 1484 1485 1486 1486 1487 1487 1488 1488 1489 1490 1490 1491 1491 1492 1492 1492 1493 1493 1493 1493 1493 1493 1493 1493 1493 1493 1492 1492 1492 1491 1491 1490 1490 1489 1488 1488 1487 1487 1487 1486 1486 1485
1454 1456 1457 1459 1460 1462 1463 1465 1466 1467 1469 1470 1471 1472 1473 1474 1475 1477 1477 1478 1479 1479 1480 1481 1482 1482 1483 1484 1485 1486 1486 1487 1487 1488 1489 1489 1490 1490 1491 1491 1492 1492 1492 1492 1492 1492 1492 1492 1492 1492 1492 1492 1492 1491 1491 1491 1490 1490 1489 1488 1488 1487 1487 1487 1486 1486 1485 1485 1484
1454 1455 1457 1458 1460 1462 1463 1465 1466 1467 1468 1469 1471 1472 1472 1474 1475 1476 1477 1477 1478 1479 1480 1481 1481 1482 1483 1484 1485 1486 1486 1487 1487 1488 1489 1489 1490 1490 1491 1491 1491 1491 1491 1491 1491 1491 1491 1491 1491 1491 1491 1491 1490 1490 1490 1490 1489 1489 1488 1488 1487 1487 1486 1486 1485 1485 1485 1484 1484
1454 1455 1457 1458 1460 1462 1463 1464 1465 1466 1467 1469 1470 1471 1472 1473 1474 1475 1476 1477 1478 1479 1480 1481 1482 1483 1484 1484 1485 1486 1486 1487 1488 1488 1489 1489 1490 1490 1490 1490 1491 1490 1490 1490 1490 1490 1490 1490 1490 1490 1490 1489 1489 1489 1489 1488 1488 1488 1487 1487 1486 1486 1485 1485 1485 1484 1484 1483 1483
1454 1455 1457 1458 1460 1461 1462 1463 1465 1466 1467 1468 1470 1471 1472 1473 1474 1475 1476 1477 1478 1479 1480 1481 1482 1483 1484 1485 1485 1486 1487 1487 1488 1488 1489 1489 1489 1489 1490 1490 1489 1489 1489 1489 1489 1489 1488 1488 1488 1488 1488 1488 1488 1488 1488 1488 1487 1487 1487 1486 1486 1485 1485 1484 1484 1484 1483 1482 1482
1454 1455 1457 1458 1459 1460 1462 1463 1464 1465 1467 1468 1469 1471 1472 1472 1473 1475 1476 1477 1478 1479 1480 1481 1482 1483 1484 1485 1485 1486 1487 1487 1487 1488 1488 1488 1489 1489 1489 1488 1488 1488 1488 1488 1488 1487 1487 1488 1488 1488 1488 1488 1488 1487 1487 1487 1487 1486 1486 1485 1485 1485 1484 1484 1483 1483 1482 1482 1482
1453 1455 1456 1457 1459 1460 1461 1462 1464 1465 1467 1468 1469 1470 1472 1472 1473 1475 1476 1477 1478 1479 1480 1481 1482 1483 1484 1484 1485 1486 1486 1487 1487 1487 1487 1487 1488 1488 1488 1487 1487 1487 1487 1487 1487 1487 1487 1487 1487 1487 1487 1487 1487 1487 1487 1486 1486 1485 1485 1485 1484 1484 1484 1483 1483 1482 1482 1482 1481
1453 1454 1456 1457 1458 1460 1461 1462 1464 1465 1467 1468 1469 1471 1472 1473 1474 1475 1477 1478 1479 1480 1481 1481 1482 1483 1483 1484 1485 1485 1486 1486 1486 1486 1487 1487 1487 1487 1487 1487 1487 1486 1486 1486 1486 1486 1486 1487 1487 1487 1487 1487 1487 1486 1486 1486 1485 1485 1484 1484 1484 1483 1483 1483 1482 1482 1482 1481 1481
1453 1454 1456 1457 1458 1460 1462 1463 1464 1466 1467 1468 1470 1471 1472 1474 1475 1476 1477 1478 1479 1480 1480 1481 1482 1482 1483 1483 1484 1484 1485 1485 1485 1486 1486 1486 1486 1486 1486 1486 1486 1486 1486 1486 1486 1486 1486 1486 1487 1487 1486 1486 1486 1486 1485 1485 1485 1484 1484 1484 1483 1483 1483 1482 1482 1482 1481 1481 1480
1453 1455 1456 1457 1459 1461 1462 1463 1465 1467 1468 1469 1471 1472 1473 1474 1475 1476 1477 1478 1479 1479 1480 1481 1481 1482 1482 1483 1483 1484 1484 1484 1485 1485 1485 1485 1486 1486 1486 1486 1486 1486 1486 1485 1485 1486 1486 1486 1486 1486 1486 1486 1485 1485 1485 1485 1484 1484 1484 1483 1483 1483 1482 1482 1482 1482 1481 1481 1480
1454 1455 1457 1458 1460 1461 1463 1464 1466 1467 1468 1470 1471 1472 1473 1474 1475 1476 1477 1477 1478 1479 1480 1480 1481 1481 1482 1482 1483 1483 1483 1484 1484 1484 1485 1485 1485 1485 1485 1485 1485 1485 1485 1485 1486 1486 1486 1486 1486 1486 1485 1485 1485 1485 1485 1484 1484 1484 1484 1483 1483 1483 1482 1482 1482 1481 1481 1480 1480
1455 1456 1457 1459 1460 1462 1463 1465 1466 1467 1468 1470 1471 1472 1473 1474 1475 1476 1476 1477 1478 1478 1479 1480 1480 1481 1481 1482 1482 1483 1483 1483 1484 1484 1484 1485 1485 1485 1485 1485 1485 1485 1485 1485 1486 1486 1486 1486 1485 1485 1485 1485 1485 1485 1484 1484 1484 1484 1483 1483 1483 1482 1482 1482 1482 1481 1480 1480 1479
1455 1457 1458 1459 1461 1462 1463 1465 1466 1467 1468 1470 1471 1472 1472 1473 1474 1475 1476 1477 1477 1478 1479 1479 1480 1480 1481 1482 1482 1482 1483 1483 1484 1484 1484 1484 1485 1485 1485 1485 1485 1485 1485 1485 1486 1486 1486 1485 1485 1485 1485 1485 1485 1484 1484 1484 1484 1483 1483 1483 1483 1482 1482 1482 1481 1481 1480 1479 1478
1456 1457 1458 1460 1461 1462 1464 1465 1466 1467 1468 1470 1471 1472 1472 1473 1474 1475 1476 1476 1477 1478 1478 1479 1480 1480 1481 1481 1482 1482 1483 1483 1483 1484 1484 1484 1485 1485 1485 1485 1485 1485 1485 1485 1485 1485 1485 1485 1485 1485 1485 1485 1484 1484 1484 1484 1483 1483 1483 1482 1482 1482 1482 1481 1481 1480 1479 1478 1478
1456 1457 1458 1460 1461 1462 1464 1465 1466 1467 1468 1469 1470 1471 1472 1473 1474 1475 1475 1476 1477 1477 1478 1479 1479 1480 1481 1482 1482 1482 1483 1483 1483 1484 1484 1484 1485 1485 1485 1485 1485 1485 1485 1485 1485 1485 1485 1485 1485 1485 1485 1485 1484 1484 1484 1483 1483 1483 1482 1482 1482 1481 1481 1480 1480 1479 1478 1477 1477
1456 1457 1459 1460 1461 1462 1464 1465 1466 1467 1468 1469 1470 1471 1472 1473 1474 1474 1475 1476 1477 1477 1478 1479 1480 1480 1481 1481 1482 1482 1483 1483 1483 1484 1484 1484 1485 1485 1485 1485 1485 1485 1485 1485 1485 1485 1485 1485 1485 1485 1485 1484 1484 1484 1483 1483 1482 1482 1482 1481 1481 1480 1480 1479 1478 1478 1477 1476 1476
1456 1457 1459 1460 1461 1462 1464 1465 1466 1467 1468 1469 1470 1471 1472 1473 1473 1474 1475 1476 1477 1477 1478 1479 1480 1480 1481 1481 1482 1482 1483 1483 1483 1484 1484 1484 1485 1485 1485 1485 1485 1485 1485 1485 1485 1485 1485 1485 1485 1485 1484 1484 1484 1483 1483 1482 1482 1482 1481 1481 1480 1479 1479 1478 1477 1477 1476 1475 1475
1457 1458 1459 1460 1461 1462 1463 1465 1466 1467 1468 1469 1470 1471 1472 1472 1473 1474 1475 1476 1477 1477 1478 1479 1480 1480 1481 1482 1482 1482 1483 1483 1484 1484 1484 1484 1485 1485 1485 1485 1485 1485 1485 1485 1485 1485 1485 1485 1485 1484 1484 1484 1483 1483 1482 1482 1481 1481 1480 1480 1479 1478 1478 1477 1477 1476 1475 1474 1474
1457 1458 1459 1460 1461 1462 1464 1465 1466 1467 1468 1469 1470 1471 1472 1472 1473 1474 1476 1477 1477 1478 1478 1479 1480 1481 1481 1482 1482 1482 1483 1483 1484 1484 1484 1485 1485 1485 1485 1485 1485 1485 1485 1485 1485 1485 1485 1485 1484 1484 1484 1483 1483 1482 1482 1481 1481 1480 1479 1479 1478 1477 1477 1477 1476 1475 1474 1474 1473
1457 1458 1460 1461 1462 1462 1464 1465 1466 1467 1468 1469 1470 1471 1472 1473 1473 1475 1476 1477 1478 1478 1479 1479 1480 1481 1481 1482 1482 1483 1483 1484 1484 1484 1484 1484 1485 1485 1485 1485 1485 1485 1485 1485 1485 1485 1484 1484 1484 1484 1483 1483 1482 1482 1481 1481 1480 1479 1479 1478 1477 1477 1477 1476 1475 1475 1474 1473 1473
1457 1458 1460 1461 1462 1463 1464 1465 1466 1467 1468 1469 1470 1471 1472 1473 1474 1475 1476 1477 1478 1478 1479 1480 1480 1481 1482 1482 1482 1483 1483 1484 1484 1484 1484 1484 1484 1484 1484 1484 1484 1484 1484 1484 1484 1484 1484 1484 1483 1483 1483 1482 1482 1481 1481 1480 1479 1479 1478 1478 1477 1477 1476 1475 1475 1474 1474 1473 1472
1457 1459 1460 1461 1462 1463 1464 1465 1466 1467 1468 1469 1470 1471 1472 1473 1474 1475 1476 1477 1478 1479 1479 1480 1480 1481 1482 1482 1483 1483 1483 1484 1484 1484 1484 1484 1484 1484 1484 1484 1483 1483 1483 1483 1483 1483 1483 1482 1482 1482 1482 1482 1482 1481 1480 1479 1479 1478 1478 1477 1477 1476 1476 1475 1475 1474 1474 1473 1472